Weather History for Gilze-Rijen, Netherlands

Change the Weather History Date:

Tuesday, January 15, 2013

  Actual Average Record
Temperature  
Mean Temperature 27 °F -  
Max Temperature 28 °F 42 °F 50 °F (2008)
Min Temperature 26 °F 32 °F 21 °F (1997)
Degree Days  
Heating Degree Days 38    
Moisture  
Dew Point 27 °F    
Average Humidity 99    
Maximum Humidity 100    
Minimum Humidity 80    
Precipitation  
Precipitation 0.00 in - - ()
Sea Level Pressure  
Sea Level Pressure 29.69 in    
Wind  
Wind Speed 9 mph ()    
Max Wind Speed 14 mph    
Max Gust Speed -    
Visibility 2.4 miles    
Events Snow    
Averages and records for this station are not official NWS values.
T = Trace of Precipitation, MM = Missing Value Source: Averaged Metar Reports

Daily Weather History Graph

Daily Weather History Graph

Search for Another Location

Airport:

Trip Planner

Search our weather history database for the weather conditions in past years. The results will help you decide how hot, cold, wet, or windy it might be!

Date:

Astronomy

Jan. 15, 2013 Rise Set
Actual Time 8:39 AM CET 5:00 PM CET
Civil Twilight 8:00 AM CET 5:39 PM CET
Nautical Twilight 7:18 AM CET 6:21 PM CET
Astronomical Twilight 6:38 AM CET 7:01 PM CET
Moon 10:02 AM CET (1/15) 10:12 PM CET (1/15)
Length of Visible Light 9h 38m
Length of Day
8h 21m
Waxing Crescent, 17% of the Moon is Illuminated
Jan 15
Waxing Crescent
Jan 19
First Quarter
Jan 27
Full
Feb 3
Last Quarter
Feb 10
New

Hourly Weather History & Observations

Time (CET) Temp. Windchill Dew Point Humidity Pressure Visibility Wind Dir Wind Speed Gust Speed Precip Events Conditions
12:19 AM 26.6 °F 15.2 °F 26.6 °F 100% 29.68 in 0.9 mi SE 13.8 mph - N/A Snow Snow
12:25 AM 26.6 °F 15.7 °F 26.6 °F 100% 29.68 in 0.9 mi SE 12.7 mph - N/A Snow Snow
12:44 AM 26.6 °F 15.7 °F 26.6 °F 100% 29.65 in 0.2 mi SE 12.7 mph - N/A Snow Snow
12:48 AM 26.6 °F 16.2 °F 26.6 °F 100% 29.65 in 0.5 mi SE 11.5 mph - N/A Snow Snow
12:55 AM 26.6 °F 15.7 °F 26.6 °F 100% 29.65 in 0.4 mi SE 12.7 mph - N/A Snow Snow
12:58 AM 26.6 °F 15.7 °F 26.6 °F 100% 29.65 in 0.5 mi SE 12.7 mph - N/A Snow Snow
1:03 AM 26.6 °F 15.7 °F 26.6 °F 100% 29.65 in 0.4 mi SE 12.7 mph - N/A Snow Snow
1:10 AM 26.6 °F 16.2 °F 26.6 °F 100% 29.65 in 1.1 mi SE 11.5 mph - N/A Snow Snow
1:14 AM 26.6 °F 15.7 °F 26.6 °F 100% 29.65 in 0.7 mi SE 12.7 mph - N/A Snow Snow
1:19 AM 26.6 °F 15.7 °F 26.6 °F 100% 29.65 in 1.1 mi SE 12.7 mph - N/A Snow Snow
1:25 AM 26.6 °F 15.2 °F 26.6 °F 100% 29.62 in 0.9 mi SE 13.8 mph - N/A Snow Light Snow
1:29 AM 26.6 °F 15.2 °F 26.6 °F 100% 29.62 in 1.0 mi SE 13.8 mph - N/A Snow Snow
1:42 AM 26.6 °F 15.2 °F 26.6 °F 100% 29.62 in 1.1 mi SE 13.8 mph - N/A Snow Light Snow
1:55 AM 26.6 °F 15.2 °F 26.6 °F 100% 29.62 in 1.2 mi ESE 13.8 mph - N/A Snow Light Snow
2:25 AM 28.4 °F 18.0 °F 28.4 °F 100% 29.62 in 1.2 mi SE 12.7 mph - N/A Snow Light Snow
2:55 AM 28.4 °F 18.0 °F 28.4 °F 100% 29.62 in 1.4 mi SE 12.7 mph - N/A Snow Light Snow
3:25 AM 28.4 °F 19.7 °F 28.4 °F 100% 29.62 in 1.5 mi ESE 9.2 mph - N/A Snow Light Snow Grains
3:33 AM 28.4 °F 19.1 °F 28.4 °F 100% 29.62 in - ESE 10.4 mph - N/A Snow Light Snow
3:46 AM 28.4 °F 19.7 °F 28.4 °F 100% 29.62 in 3.1 mi ESE 9.2 mph - N/A Snow Light Snow
3:55 AM 28.4 °F 19.7 °F 28.4 °F 100% 29.62 in 4.3 mi SE 9.2 mph - N/A   Mostly Cloudy
3:59 AM 28.4 °F 19.7 °F 28.4 °F 100% 29.62 in 4.3 mi ESE 9.2 mph - N/A   Overcast
4:05 AM 28.4 °F 19.7 °F 28.4 °F 100% 29.62 in 5.0 mi ESE 9.2 mph - N/A   Mostly Cloudy
4:25 AM 28.4 °F 19.7 °F 28.4 °F 100% 29.59 in 5.0 mi SE 9.2 mph - N/A   Overcast
4:40 AM 28.4 °F 20.4 °F 28.4 °F 100% 29.59 in 4.3 mi ESE 8.1 mph - N/A   Overcast
4:55 AM 28.4 °F 22.2 °F 28.4 °F 100% 29.59 in 5.0 mi SE 5.8 mph - N/A   Overcast
5:06 AM 28.4 °F 23.3 °F 28.4 °F 100% 29.59 in 5.6 mi ESE 4.6 mph - N/A   Overcast
5:25 AM 28.4 °F 19.7 °F 28.4 °F 100% 29.59 in 5.0 mi ESE 9.2 mph - N/A   Overcast
5:33 AM 28.4 °F 22.2 °F 28.4 °F 100% 29.59 in 4.3 mi ESE 5.8 mph - N/A   Overcast
5:51 AM 28.4 °F 20.4 °F 28.4 °F 100% 29.59 in 5.0 mi ESE 8.1 mph - N/A   Overcast
5:55 AM 28.4 °F 19.7 °F 28.4 °F 100% 29.59 in 5.0 mi ESE 9.2 mph - N/A   Overcast
5:56 AM 28.4 °F 20.4 °F 28.4 °F 100% 29.59 in 4.3 mi ESE 8.1 mph - N/A   Mostly Cloudy
6:25 AM 28.4 °F 21.2 °F 28.4 °F 100% 29.62 in - ESE 6.9 mph - N/A Snow Light Snow
6:55 AM 28.4 °F 20.4 °F 28.4 °F 100% 29.62 in - ESE 8.1 mph - N/A Snow Light Snow
7:25 AM 28.4 °F 20.4 °F 28.4 °F 100% 29.62 in - East 8.1 mph - N/A Snow Light Snow
7:27 AM 28.4 °F 19.7 °F 28.4 °F 100% 29.62 in 3.1 mi East 9.2 mph - N/A Snow Light Snow
7:33 AM 28.4 °F 20.4 °F 28.4 °F 100% 29.62 in 3.1 mi East 8.1 mph - N/A Snow Light Snow
7:37 AM 28.4 °F 21.2 °F 28.4 °F 100% 29.62 in 3.1 mi East 6.9 mph - N/A Snow Light Snow
7:55 AM 28.4 °F 20.4 °F 28.4 °F 100% 29.62 in 3.1 mi East 8.1 mph - N/A Snow Light Snow
8:13 AM 28.4 °F 21.2 °F 28.4 °F 100% 29.62 in - NE 6.9 mph - N/A Snow Light Snow
8:25 AM 28.4 °F 20.4 °F 26.6 °F 93% 29.65 in - ENE 8.1 mph - N/A Snow Light Snow
8:41 AM 28.4 °F 19.7 °F 26.6 °F 93% 29.65 in 2.2 mi ENE 9.2 mph - N/A Snow Light Snow
8:45 AM 28.4 °F 20.4 °F 26.6 °F 93% 29.65 in - ENE 8.1 mph - N/A Snow Light Snow
8:51 AM 26.6 °F 18.2 °F 26.6 °F 100% 29.65 in 2.2 mi ENE 8.1 mph - N/A Snow Light Snow
8:55 AM 26.6 °F 19.1 °F 26.6 °F 100% 29.65 in 1.7 mi ENE 6.9 mph - N/A Snow Light Snow
9:04 AM 26.6 °F 18.2 °F 26.6 °F 100% 29.65 in 1.4 mi ENE 8.1 mph - N/A Snow Light Snow
9:20 AM 26.6 °F 18.2 °F 26.6 °F 100% 29.65 in 1.1 mi ENE 8.1 mph - N/A Snow Light Snow
9:25 AM 26.6 °F 18.2 °F 26.6 °F 100% 29.65 in 1.0 mi ENE 8.1 mph - N/A Snow Light Snow
9:28 AM 26.6 °F 19.1 °F 26.6 °F 100% 29.65 in 0.9 mi ENE 6.9 mph - N/A Snow Light Snow
9:55 AM 26.6 °F 19.1 °F 26.6 °F 100% 29.68 in 1.0 mi NE 6.9 mph - N/A Snow Light Snow
9:59 AM 26.6 °F 18.2 °F 26.6 °F 100% 29.68 in 0.9 mi NE 8.1 mph - N/A Snow Light Snow
10:00 AM 26.6 °F 18.2 °F 26.6 °F 100% 29.68 in 1.0 mi NE 8.1 mph - N/A Snow Light Snow
10:18 AM 26.6 °F 19.1 °F 26.6 °F 100% 29.68 in 1.2 mi NE 6.9 mph - N/A Snow Light Snow
10:25 AM 26.6 °F 19.1 °F 26.6 °F 100% 29.68 in 1.4 mi NE 6.9 mph - N/A Snow Light Snow
10:55 AM 28.4 °F 21.2 °F 28.4 °F 100% 29.68 in 1.7 mi NE 6.9 mph - N/A Snow Light Snow
11:06 AM 28.4 °F 21.2 °F 28.4 °F 100% 29.68 in 0.9 mi NE 6.9 mph - N/A Snow Light Snow
11:08 AM 28.4 °F 21.2 °F 28.4 °F 100% 29.68 in 0.9 mi NE 6.9 mph - N/A Snow Light Snow
11:12 AM 28.4 °F 21.2 °F 28.4 °F 100% 29.68 in 1.2 mi NE 6.9 mph - N/A Snow Light Snow
11:14 AM 28.4 °F 21.2 °F 28.4 °F 100% 29.68 in 0.9 mi NE 6.9 mph - N/A Snow Light Snow
11:25 AM 28.4 °F 21.2 °F 28.4 °F 100% 29.68 in 0.6 mi ENE 6.9 mph - N/A Snow Light Snow
11:30 AM 28.4 °F 22.2 °F 28.4 °F 100% 29.68 in - ENE 5.8 mph - N/A Snow Light Snow
11:36 AM 28.4 °F 22.2 °F 28.4 °F 100% 29.68 in 0.6 mi NE 5.8 mph - N/A Snow Light Snow
11:38 AM 28.4 °F 22.2 °F 28.4 °F 100% 29.68 in 1.0 mi NE 5.8 mph - N/A Snow Light Snow
11:45 AM 28.4 °F 21.2 °F 28.4 °F 100% 29.68 in 1.0 mi NE 6.9 mph - N/A Snow Light Snow
11:50 AM 28.4 °F 21.2 °F 28.4 °F 100% 29.68 in 0.8 mi NE 6.9 mph - N/A Snow Light Snow
11:55 AM 28.4 °F 21.2 °F 28.4 °F 100% 29.68 in 1.1 mi NNE 6.9 mph - N/A Snow Light Snow
12:08 PM 28.4 °F 20.4 °F 28.4 °F 100% 29.68 in 1.1 mi NNE 8.1 mph - N/A Snow Light Snow
12:25 PM 28.4 °F 20.4 °F 28.4 °F 100% 29.68 in - NNE 8.1 mph - N/A Snow Light Snow
12:29 PM 28.4 °F 20.4 °F 28.4 °F 100% 29.68 in - NNE 8.1 mph - N/A Snow Light Snow
12:33 PM 28.4 °F 20.4 °F 28.4 °F 100% 29.68 in - NNE 8.1 mph - N/A Snow Light Snow
12:41 PM 28.4 °F 20.4 °F 28.4 °F 100% 29.68 in - NNE 8.1 mph - N/A   Overcast
12:50 PM 28.4 °F 20.4 °F 28.4 °F 100% 29.68 in 3.1 mi NNE 8.1 mph - N/A   Overcast
12:55 PM 28.4 °F 20.4 °F 28.4 °F 100% 29.68 in 3.1 mi NNE 8.1 mph - N/A   Overcast
1:06 PM 28.4 °F 19.1 °F 28.4 °F 100% 29.68 in - NNE 10.4 mph - N/A Snow Light Snow
1:25 PM 28.4 °F 19.1 °F 28.4 °F 100% 29.68 in - NNE 10.4 mph - N/A Snow Light Snow
1:38 PM 28.4 °F 19.7 °F 28.4 °F 100% 29.71 in - NNE 9.2 mph - N/A Snow Light Snow
1:39 PM 28.4 °F 19.7 °F 28.4 °F 100% 29.71 in 2.5 mi NNE 9.2 mph - N/A Snow Light Snow
1:44 PM 28.4 °F 19.1 °F 26.6 °F 93% 29.71 in - NNE 10.4 mph - N/A Snow Light Snow
1:55 PM 28.4 °F 19.7 °F 26.6 °F 93% 29.71 in 1.9 mi NNE 9.2 mph - N/A Snow Light Snow
2:14 PM 26.6 °F 17.5 °F 26.6 °F 100% 29.71 in - North 9.2 mph - N/A Snow Light Snow
2:20 PM 26.6 °F 17.5 °F 26.6 °F 100% 29.71 in 2.2 mi North 9.2 mph - N/A Snow Light Snow
2:25 PM 26.6 °F 17.5 °F 26.6 °F 100% 29.71 in - North 9.2 mph - N/A Snow Light Snow
2:55 PM 28.4 °F 19.7 °F 28.4 °F 100% 29.71 in - North 9.2 mph - N/A Snow Light Snow
2:59 PM 26.6 °F 17.5 °F 26.6 °F 100% 29.71 in - North 9.2 mph - N/A Snow Light Snow
3:07 PM 26.6 °F 16.8 °F 26.6 °F 100% 29.71 in - North 10.4 mph - N/A Snow Light Snow
3:11 PM 26.6 °F 16.8 °F 26.6 °F 100% 29.71 in - North 10.4 mph - N/A   Mostly Cloudy
3:25 PM 26.6 °F 17.5 °F 26.6 °F 100% 29.71 in - North 9.2 mph - N/A Snow Light Snow
3:33 PM 26.6 °F 16.8 °F 26.6 °F 100% 29.71 in - North 10.4 mph - N/A Snow Light Snow
3:55 PM 26.6 °F 18.2 °F 26.6 °F 100% 29.71 in - North 8.1 mph - N/A Snow Light Snow
3:56 PM 26.6 °F 17.5 °F 26.6 °F 100% 29.74 in 1.7 mi North 9.2 mph - N/A Snow Light Snow
4:06 PM 26.6 °F 18.2 °F 26.6 °F 100% 29.74 in - North 8.1 mph - N/A Snow Light Snow
4:10 PM 26.6 °F 18.2 °F 26.6 °F 100% 29.74 in - North 8.1 mph - N/A Snow Light Snow
4:14 PM 26.6 °F 18.2 °F 26.6 °F 100% 29.74 in 2.5 mi North 8.1 mph - N/A Snow Light Snow
4:19 PM 26.6 °F 18.2 °F 26.6 °F 100% 29.74 in - North 8.1 mph - N/A Snow Light Snow
4:25 PM 26.6 °F 18.2 °F 26.6 °F 100% 29.74 in - NNW 8.1 mph - N/A Snow Light Snow
4:34 PM 26.6 °F 18.2 °F 26.6 °F 100% 29.74 in - North 8.1 mph - N/A Snow Light Snow
4:35 PM 26.6 °F 18.2 °F 26.6 °F 100% 29.74 in 3.1 mi North 8.1 mph - N/A Snow Light Snow
4:51 PM 26.6 °F 19.1 °F 26.6 °F 100% 29.74 in 3.1 mi North 6.9 mph - N/A Snow Light Snow
4:55 PM 26.6 °F 19.1 °F 26.6 °F 100% 29.74 in 3.1 mi North 6.9 mph - N/A   Overcast
5:04 PM 26.6 °F 19.1 °F 26.6 °F 100% 29.74 in - North 6.9 mph - N/A   Overcast
5:25 PM 26.6 °F 18.2 °F 26.6 °F 100% 29.74 in - North 8.1 mph - N/A   Overcast
5:55 PM 26.6 °F 18.2 °F 26.6 °F 100% 29.74 in - North 8.1 mph - N/A Snow Light Snow
6:01 PM 26.6 °F 18.2 °F 26.6 °F 100% 29.74 in - North 8.1 mph - N/A Snow Light Snow
6:18 PM 26.6 °F 18.2 °F 26.6 °F 100% 29.74 in 2.5 mi North 8.1 mph - N/A Snow Light Snow
6:25 PM 26.6 °F 18.2 °F 26.6 °F 100% 29.77 in - North 8.1 mph - N/A Snow Light Snow
6:29 PM 26.6 °F 18.2 °F 26.6 °F 100% 29.74 in - North 8.1 mph - N/A Snow Light Snow
6:33 PM 26.6 °F 18.2 °F 26.6 °F 100% 29.77 in - North 8.1 mph - N/A Snow Light Snow
6:37 PM 26.6 °F 18.2 °F 26.6 °F 100% 29.77 in - North 8.1 mph - N/A Snow Light Snow
6:41 PM 26.6 °F 18.2 °F 26.6 °F 100% 29.77 in - North 8.1 mph - N/A Snow Light Snow
6:55 PM 26.6 °F 18.2 °F 26.6 °F 100% 29.77 in 1.6 mi North 8.1 mph - N/A Snow Light Snow
7:25 PM 26.6 °F 19.1 °F 26.6 °F 100% 29.77 in 1.5 mi North 6.9 mph - N/A Snow Light Snow
7:55 PM 28.4 °F 19.7 °F 28.4 °F 100% 29.77 in 2.5 mi NNE 9.2 mph - N/A Snow Light Snow
7:56 PM 28.4 °F 19.7 °F 28.4 °F 100% 29.77 in - NNE 9.2 mph - N/A Snow Light Snow
8:14 PM 28.4 °F 19.7 °F 28.4 °F 100% 29.77 in - NNE 9.2 mph - N/A Snow Light Snow
8:18 PM 28.4 °F 19.7 °F 28.4 °F 100% 29.77 in - NNE 9.2 mph - N/A Snow Light Snow
8:25 PM 28.4 °F 19.7 °F 28.4 °F 100% 29.77 in - NNE 9.2 mph - N/A Snow Light Snow
8:27 PM 28.4 °F 19.1 °F 26.6 °F 93% 29.77 in 1.5 mi NNE 10.4 mph - N/A Snow Light Snow
8:43 PM 26.6 °F 16.8 °F 26.6 °F 100% 29.77 in - NNE 10.4 mph - N/A Snow Light Snow
8:45 PM 28.4 °F 19.1 °F 26.6 °F 93% 29.77 in - NNE 10.4 mph - N/A Snow Light Snow
8:55 PM 28.4 °F 18.5 °F 28.4 °F 100% 29.77 in - North 11.5 mph - N/A Snow Light Snow
8:58 PM 28.4 °F 19.1 °F 28.4 °F 100% 29.77 in - North 10.4 mph - N/A Snow Light Snow
9:25 PM 28.4 °F 19.1 °F 26.6 °F 93% 29.77 in 1.6 mi North 10.4 mph - N/A Snow Light Snow
9:47 PM 26.6 °F 16.2 °F 26.6 °F 100% 29.80 in - North 11.5 mph - N/A Snow Light Snow
9:51 PM 28.4 °F 18.5 °F 28.4 °F 100% 29.80 in - North 11.5 mph - N/A Snow Light Snow
9:55 PM 28.4 °F 18.5 °F 28.4 °F 100% 29.80 in 3.1 mi North 11.5 mph - N/A Snow Light Snow
9:56 PM 28.4 °F 18.5 °F 28.4 °F 100% 29.80 in 5.0 mi North 11.5 mph - N/A   Mostly Cloudy
10:12 PM 28.4 °F 18.5 °F 28.4 °F 100% 29.80 in 6.2 mi North 11.5 mph - N/A   Mostly Cloudy
10:25 PM 28.4 °F 19.7 °F 28.4 °F 100% 29.80 in 6.2 mi NNE 9.2 mph - N/A   Mostly Cloudy
10:55 PM 26.6 °F 17.5 °F 26.6 °F 100% 29.80 in 6.2 mi NNE 9.2 mph - N/A   Overcast
10:59 PM 26.6 °F 18.2 °F 26.6 °F 100% 29.80 in 6.2 mi NNE 8.1 mph - N/A   Overcast
11:25 PM 26.6 °F 19.1 °F 24.8 °F 93% 29.80 in 6.2 mi North 6.9 mph - N/A   Mostly Cloudy
11:55 PM 26.6 °F 18.2 °F 21.2 °F 80% 29.80 in 6.2 mi North 8.1 mph - N/A   Mostly Cloudy